Change the Weather History Date:

Thursday, January 9, 2014

  Actual Average Record
Temperature  
Mean Temperature 16 °F -  
Max Temperature 32 °F 27 °F 32 °F (2014)
Min Temperature 1 °F 10 °F 1 °F (2014)
Degree Days  
Heating Degree Days 48    
Moisture  
Dew Point 14 °F    
Average Humidity 83    
Maximum Humidity 93    
Minimum Humidity 68    
Precipitation  
Precipitation 0.00 in - - ()
Sea Level Pressure  
Sea Level Pressure 30.40 in    
Wind  
Wind Speed 4 mph (ESE)    
Max Wind Speed 10 mph    
Max Gust Speed -    
Visibility 6 miles    
Events Snow    
Averages and records for this station are not official NWS values.
T = Trace of Precipitation, MM = Missing Value Source: NWS Daily Summary

Daily Weather History Graph

Daily Weather History Graph

Search for Another Location

Airport or City:

Trip Planner

Search our weather history database for the weather conditions in past years. The results will help you decide how hot, cold, wet, or windy it might be!

Date:

Astronomy

Jan. 09, 2014 Rise Set
Actual Time 8:09 AM EST 5:34 PM EST
Civil Twilight 7:38 AM EST 6:05 PM EST
Nautical Twilight 7:04 AM EST 6:39 PM EST
Astronomical Twilight 6:31 AM EST 7:12 PM EST
Moon 1:02 PM EST (1/9) 2:15 AM EST (1/9)
Length of Visible Light 10h 26m
Length of Day
9h 25m
Waxing Gibbous, 66% of the Moon is Illuminated
Jan 9
Waxing Gibbous
Jan 15
Full
Jan 24
Last Quarter
Jan 30
New
Feb 6
First Quarter

Hourly Weather History & Observations

Time (EST) Temp. Windchill Dew Point Humidity Pressure Visibility Wind Dir Wind Speed Gust Speed Precip Events Conditions
12:15 AM 12.2 °F - 6.8 °F 79% 30.49 in 10.0 mi Calm Calm - N/A   Clear
12:35 AM 12.2 °F - 8.6 °F 85% 30.49 in 10.0 mi Calm Calm - N/A   Clear
12:55 AM 12.2 °F - 8.6 °F 85% 30.49 in 7.0 mi Calm Calm - N/A   Clear
1:15 AM 10.4 °F - 8.6 °F 92% 30.49 in 7.0 mi Calm Calm - N/A   Clear
1:35 AM 10.4 °F - 5.0 °F 79% 30.49 in 10.0 mi Calm Calm - N/A   Clear
1:55 AM 8.6 °F - 5.0 °F 85% 30.49 in 10.0 mi Calm Calm - N/A   Clear
2:15 AM 8.6 °F - 5.0 °F 85% 30.50 in 10.0 mi Calm Calm - N/A   Clear
2:35 AM 10.4 °F - 5.0 °F 79% 30.51 in 10.0 mi Calm Calm - N/A   Clear
2:55 AM 8.6 °F - 5.0 °F 85% 30.51 in 10.0 mi Calm Calm - N/A   Clear
3:15 AM 8.6 °F - 3.2 °F 79% 30.51 in 10.0 mi Calm Calm - N/A   Clear
3:35 AM 8.6 °F - 3.2 °F 79% 30.51 in 7.0 mi Calm Calm - N/A   Clear
3:55 AM 6.8 °F - 3.2 °F 85% 30.50 in 7.0 mi Calm Calm - N/A   Clear
4:15 AM 5.0 °F - 1.4 °F 85% 30.50 in 7.0 mi Calm Calm - N/A   Clear
4:35 AM 5.0 °F - 1.4 °F 85% 30.50 in 7.0 mi Calm Calm - N/A   Clear
4:55 AM 3.2 °F - -0.4 °F 85% 30.50 in 7.0 mi Calm Calm - N/A   Clear
5:15 AM 5.0 °F - 1.4 °F 85% 30.50 in 7.0 mi Calm Calm - N/A   Clear
5:35 AM 5.0 °F - 1.4 °F 85% 30.50 in 7.0 mi Calm Calm - N/A   Clear
5:55 AM 1.4 °F -6.2 °F -2.2 °F 85% 30.50 in 7.0 mi ENE 3.5 mph - N/A   Clear
6:15 AM 1.4 °F - -4.0 °F 78% 30.49 in 7.0 mi Calm Calm - N/A   Clear
6:35 AM 3.2 °F -4.2 °F -0.4 °F 85% 30.49 in 7.0 mi East 3.5 mph - N/A   Scattered Clouds
6:55 AM 5.0 °F -5.6 °F 1.4 °F 85% 30.49 in 10.0 mi East 5.8 mph - N/A   Mostly Cloudy
7:15 AM 8.6 °F 0.1 °F 3.2 °F 79% 30.49 in 10.0 mi ESE 4.6 mph - N/A   Mostly Cloudy
7:35 AM 8.6 °F -1.3 °F 5.0 °F 85% 30.50 in 10.0 mi ESE 5.8 mph - N/A   Mostly Cloudy
7:55 AM 10.4 °F 0.8 °F 6.8 °F 85% 30.49 in 10.0 mi East 5.8 mph - N/A   Overcast
8:15 AM 12.2 °F -0.2 °F 8.6 °F 85% 30.49 in 10.0 mi East 9.2 mph - N/A   Overcast
8:35 AM 14.0 °F 2.0 °F 10.4 °F 86% 30.49 in 10.0 mi ESE 9.2 mph - N/A   Overcast
8:55 AM 14.0 °F 2.0 °F 10.4 °F 86% 30.49 in 10.0 mi ESE 9.2 mph - N/A   Overcast
9:15 AM 15.8 °F 3.4 °F 10.4 °F 79% 30.50 in 10.0 mi ESE 10.4 mph - N/A   Overcast
9:35 AM 17.6 °F 7.3 °F 10.4 °F 73% 30.49 in 10.0 mi ESE 8.1 mph - N/A   Overcast
9:55 AM 17.6 °F 7.3 °F 10.4 °F 73% 30.49 in 10.0 mi ESE 8.1 mph - N/A   Overcast
10:15 AM 17.6 °F 8.2 °F 10.4 °F 73% 30.48 in 10.0 mi ESE 6.9 mph - N/A   Overcast
10:35 AM 17.6 °F 7.3 °F 10.4 °F 73% 30.47 in 10.0 mi ESE 8.1 mph - N/A   Overcast
10:55 AM 19.4 °F 9.5 °F 10.4 °F 68% 30.47 in 7.0 mi ESE 8.1 mph - N/A   Overcast
11:15 AM 19.4 °F 9.5 °F 12.2 °F 74% 30.45 in 10.0 mi ESE 8.1 mph - N/A   Scattered Clouds
11:35 AM 21.2 °F 11.7 °F 12.2 °F 68% 30.45 in 10.0 mi East 8.1 mph - N/A   Clear
11:55 AM 23.0 °F 13.9 °F 14.0 °F 68% 30.43 in 7.0 mi ESE 8.1 mph - N/A   Clear
12:15 PM 23.0 °F 13.9 °F 14.0 °F 68% 30.42 in 10.0 mi ESE 8.1 mph - N/A   Clear
12:35 PM 23.0 °F 14.7 °F 14.0 °F 68% 30.39 in 10.0 mi ESE 6.9 mph - N/A   Clear
12:55 PM 23.0 °F 14.7 °F 14.0 °F 68% 30.38 in 10.0 mi East 6.9 mph - N/A   Clear
1:15 PM 23.0 °F 15.8 °F 15.8 °F 74% 30.37 in 7.0 mi East 5.8 mph - N/A   Mostly Cloudy
1:35 PM 23.0 °F 15.8 °F 15.8 °F 74% 30.38 in 5.0 mi SE 5.8 mph - N/A Snow Light Snow
1:55 PM 23.0 °F 14.7 °F 17.6 °F 80% 30.38 in 3.0 mi SE 6.9 mph - N/A Snow Light Snow
2:15 PM 23.0 °F 15.8 °F 19.4 °F 86% 30.36 in 0.8 mi ESE 5.8 mph - N/A Snow Light Snow
2:35 PM 23.0 °F 13.9 °F 19.4 °F 86% 30.35 in 1.0 mi ESE 8.1 mph - N/A Snow Light Snow
2:55 PM 23.0 °F 13.9 °F 19.4 °F 86% 30.33 in 2.0 mi East 8.1 mph - N/A Snow Light Snow
3:15 PM 23.0 °F 15.8 °F 19.4 °F 86% 30.33 in 1.2 mi East 5.8 mph - N/A Snow Light Snow
3:35 PM 24.8 °F 16.9 °F 19.4 °F 80% 30.33 in 1.8 mi ESE 6.9 mph - N/A Snow Light Snow
3:55 PM 24.8 °F 19.1 °F 21.2 °F 86% 30.34 in 1.0 mi ESE 4.6 mph - N/A Snow Light Snow
4:15 PM 24.8 °F 16.9 °F 21.2 °F 86% 30.34 in 1.2 mi ESE 6.9 mph - N/A Snow Light Snow
4:35 PM 24.8 °F 15.3 °F 21.2 °F 86% 30.34 in 3.0 mi ESE 9.2 mph - N/A Snow Light Snow
4:55 PM 23.0 °F 14.7 °F 21.2 °F 93% 30.33 in 1.8 mi ESE 6.9 mph - N/A Snow Light Snow
5:15 PM 23.0 °F 13.9 °F 21.2 °F 93% 30.32 in 2.5 mi East 8.1 mph - N/A Snow Light Snow
6:15 PM 24.8 °F 16.1 °F 21.2 °F 86% 30.31 in 5.0 mi ESE 8.1 mph - N/A   Mostly Cloudy
6:35 PM 24.8 °F 15.3 °F 21.2 °F 86% 30.31 in 5.0 mi ESE 9.2 mph - N/A   Overcast
6:55 PM 24.8 °F 16.9 °F 21.2 °F 86% 30.31 in 5.0 mi SE 6.9 mph - N/A Snow Light Snow
7:15 PM 24.8 °F 16.9 °F 21.2 °F 86% 30.31 in 2.5 mi SE 6.9 mph - N/A Snow Light Snow
7:35 PM 24.8 °F 16.1 °F 21.2 °F 86% 30.30 in 3.0 mi SE 8.1 mph - N/A Snow Light Snow
7:55 PM 24.8 °F 15.3 °F 21.2 °F 86% 30.30 in 4.0 mi SE 9.2 mph - N/A Snow Light Snow
8:15 PM 26.6 °F 19.1 °F 23.0 °F 86% 30.29 in 3.0 mi ESE 6.9 mph - N/A Snow Light Snow
8:35 PM 26.6 °F 20.0 °F 23.0 °F 86% 30.28 in 2.0 mi SE 5.8 mph - N/A Snow Light Snow
8:55 PM 26.6 °F 20.0 °F 23.0 °F 86% 30.27 in 2.5 mi ESE 5.8 mph - N/A Snow Light Snow
9:15 PM 28.4 °F 21.2 °F 24.8 °F 86% 30.26 in 3.0 mi SE 6.9 mph - N/A Snow Light Snow
9:35 PM 28.4 °F 21.2 °F 26.6 °F 93% 30.25 in 3.0 mi SE 6.9 mph - N/A Snow Light Snow
9:55 PM 28.4 °F 20.4 °F 26.6 °F 93% 30.25 in 2.5 mi SE 8.1 mph - N/A Snow Light Snow
10:15 PM 30.2 °F 23.4 °F 26.6 °F 86% 30.25 in 3.0 mi SE 6.9 mph - N/A   Overcast
10:35 PM 30.2 °F 23.4 °F 28.4 °F 93% 30.24 in 3.0 mi SSE 6.9 mph - N/A   Overcast
10:55 PM 30.2 °F 23.4 °F 28.4 °F 93% 30.23 in 3.0 mi SSE 6.9 mph - N/A Snow Light Snow
11:15 PM 32.0 °F 25.6 °F 28.4 °F 87% 30.22 in 5.0 mi SSE 6.9 mph - N/A   Scattered Clouds
11:35 PM 32.0 °F 26.4 °F 28.4 °F 87% 30.22 in 4.0 mi SSE 5.8 mph - N/A   Mostly Cloudy
11:55 PM 32.0 °F 26.4 °F 30.2 °F 93% 30.20 in 4.0 mi SSE 5.8 mph - N/A   Overcast